Simultaneous Nadir Overpasses (SNOs) Predictions

Prediction of SNOs between GOES-15 and NPP Satellite Orbit:

Table of predicted SNOs for the next 14.0 days since TLE Epoch: 9/4/2015
Index Date Time (GOES-15) GOES-15 Lat,Lon NPP Lat,Lon Distance(km) Time Diff (sec)
1 09/04/2015 22:31:02 -0.37,-135.16 -0.55,-135.87 81.00 80
2 09/05/2015 22:14:57 -0.37,-135.18 0.48,-131.34 437.47 80
3 09/07/2015 10:36:43 0.36,-135.18 0.68,-136.61 162.80 80
4 09/08/2015 10:15:17 0.36,-135.19 -0.36,-132.08 355.15 80
5 09/09/2015 22:37:12 -0.35,-135.23 -0.83,-137.38 245.69 80
6 09/10/2015 22:21:06 -0.35,-135.24 0.20,-132.85 272.44 80
7 09/12/2015 10:40:13 0.34,-135.24 0.95,-138.12 327.86 80
8 09/13/2015 10:21:26 0.34,-135.25 -0.03,-133.58 189.82 80
9 09/14/2015 22:43:20 -0.33,-135.27 -1.16,-138.88 412.32 80
10 09/15/2015 22:27:15 -0.33,-135.28 -0.12,-134.36 105.34 80
11 09/17/2015 10:46:21 0.32,-135.28 1.27,-139.63 495.41 80
12 09/18/2015 10:30:15 0.32,-135.28 0.28,-135.09 21.50 80




NCC Satellite Simultaneous Nadir Overpasses (SNOs) Prediction Service
